Regional Weather Roundup
Issued by NWS Little Rock, AR

Home | Current Version | Previous Version | Graphics & Text | Print | Product List | Glossary On
Versions: 1 2 3 4 5 6 7 8 9 10 11 12 13 14 15 16 17 18 19 20 21 22 23 24 25 26 27 28 29 30 31 32 33 34 35 36 37 38 39 40 41 42 43 44 45 46 47 48 49 50
000
ASUS44 KLZK 261205
RWRLZK

WEATHER ROUNDUP FOR ARKANSAS
NATIONAL WEATHER SERVICE LITTLE ROCK AR
600 AM CST WED NOV 26 2014

NOTE: "FAIR" INDICATES FEW OR NO CLOUDS BELOW 12,000 FEET WITH NO
SIGNIFICANT WEATHER AND/OR OBSTRUCTIONS TO VISIBILITY.

ARZ001-003-010-029-261300-
NORTHWEST ARKANSAS

CITY           SKY/WX    TMP DP  RH WIND       PRES   REMARKS
FAYETTEVILLE   CLOUDY    37  27  67 S5        29.96F
6HR MIN TEMP:  24; 6HR MAX TEMP:  37;

FORT SMITH     PTCLDY    34  28  79 NE7       30.03R WCI  28
6HR MIN TEMP:  32; 6HR MAX TEMP:  36;

HARRISON       MOCLDY    31  25  78 SE6       29.97F WCI  25
6HR MIN TEMP:  27; 6HR MAX TEMP:  35;

BENTONVILLE    MOCLDY    36  25  64 S5        29.95F
6HR MIN TEMP:  30; 6HR MAX TEMP:  36;

ROGERS         CLOUDY    37  24  59 S7        29.95F
6HR MIN TEMP:  33; 6HR MAX TEMP:  37;

SILOAM SPGS    CLOUDY    39  25  56 SW5       29.97S
6HR MIN TEMP:  30; 6HR MAX TEMP:  39;

HIGHFILL       CLOUDY    36  27  69 S6        29.95F
6HR MIN TEMP:  29; 6HR MAX TEMP:  36;

SPRINGDALE     PTCLDY    37  25  60 SE8       29.97
$$

ARZ004-005-016-261300-
NORTH CENTRAL ARKANSAS

CITY           SKY/WX    TMP DP  RH WIND       PRES   REMARKS
BATESVILLE     CLEAR     30  25  80 SE6       30.07F WCI  24
6HR MIN TEMP:  27; 6HR MAX TEMP:  32;

FLIPPIN        PTCLDY    25  18  74 CALM      30.02S
6HR MIN TEMP:  25; 6HR MAX TEMP:  28;

MTN HOME       PTCLDY    32  21  64 SE5       30.01F WCI  27
6HR MIN TEMP:  27; 6HR MAX TEMP:  35;

$$

ARZ040-041-261300-
WEST CENTRAL ARKANSAS

CITY           SKY/WX    TMP DP  RH WIND       PRES   REMARKS
MENA             N/A     30  28  93 CALM        N/A
MOUNT IDA      CLEAR     27  24  89 CALM      30.01F
6HR MIN TEMP:  26; 6HR MAX TEMP:  31;

$$

ARZ009-017-025-026-028-261300-
NORTHEAST ARKANSAS

CITY           SKY/WX    TMP DP  RH WIND       PRES   REMARKS
CORNING        FAIR      28  28 100 E3        30.10F
JONESBORO      PTCLDY    31  29  92 CALM      30.11F
6HR MIN TEMP:  29; 6HR MAX TEMP:  31; 6HR PCP:  0.01;

NEWPORT        CLEAR     31  28  88 SE8       30.11F FOG     WCI  24
6HR MIN TEMP:  30; 6HR MAX TEMP:  33;

WALNUT RIDGE   CLEAR     30  25  80 SE5       30.10S WCI  25
6HR MIN TEMP:  28; 6HR MAX TEMP:  34;

BLYTHEVILLE    MOCLDY    43  30  60 SE8       30.14S
6HR MIN TEMP:  36; 6HR MAX TEMP:  43;

$$

ARZ022-023-033-042-044-261300-
CENTRAL ARKANSAS

CITY           SKY/WX    TMP DP  RH WIND       PRES   REMARKS
LITTLE ROCK    PTCLDY    31  28  89 CALM      30.09F
6HR MIN TEMP:  31; 6HR MAX TEMP:  35;

N LITTLE ROCK    N/A     35  32  86 S6        30.09F WCI  30
6HR MIN TEMP:  35; 6HR MAX TEMP:  39;

JACKSONVILLE   CLEAR     26  24  92 CALM      30.09S
6HR MIN TEMP:  26; 6HR MAX TEMP:  29;

SEARCY         CLEAR     26  25  96 CALM      30.11F
6HR MIN TEMP:  25; 6HR MAX TEMP:  28;

HOT SPRINGS    CLEAR     30  27  88 CALM      30.08S
6HR MIN TEMP:  29; 6HR MAX TEMP:  34;

RUSSELLVILLE   PTCLDY    28  26  92 CALM      30.04F
6HR MIN TEMP:  27; 6HR MAX TEMP:  31;

CLINTON        FAIR      25  23  93 CALM      30.10R
$$

ARZ036-261300-
EAST ARKANSAS

CITY           SKY/WX    TMP DP  RH WIND       PRES   REMARKS
WEST MEMPHIS   PTCLDY    29  29 100 SE5       30.13S WCI  24
6HR MIN TEMP:  27; 6HR MAX TEMP:  33;

$$

ARZ050-053-066-070-073-261300-
SOUTHWEST ARKANSAS

CITY           SKY/WX    TMP DP  RH WIND       PRES   REMARKS
ARKADELPHIA    FAIR      29  29 100 CALM      30.10S
6HR MIN TEMP:  30; 6HR MAX TEMP:  35;

CAMDEN         CLEAR     32  28  86 CALM      30.12R
TEXARKANA      PTCLDY    41  32  70 S10       30.07F
6HR MIN TEMP:  37; 6HR MAX TEMP:  44;

EL DORADO      CLEAR     34  31  88 CALM      30.12S
6HR MIN TEMP:  32; 6HR MAX TEMP:  37;

DE QUEEN       CLEAR     29  29 100 CALM      30.04F FOG
6HR MIN TEMP:  29; 6HR MAX TEMP:  36;

$$

ARZ056-057-069-261300-
SOUTHEAST ARKANSAS

CITY           SKY/WX    TMP DP  RH WIND       PRES   REMARKS
PINE BLUFF     CLEAR     33  30  88 SE5       30.11S WCI  29
6HR MIN TEMP:  33; 6HR MAX TEMP:  36;

STUTTGART      CLEAR     36  30  80 SE6       30.11S
6HR MIN TEMP:  36; 6HR MAX TEMP:  39;

MONTICELLO     CLEAR     36  29  75 CALM      30.12S
6HR MIN TEMP:  32; 6HR MAX TEMP:  36;


$$




USA.gov is the U.S. government's official web portal to all federal, state and local government web resources and services.